Regional Weather Roundup
Issued by NWS Green Bay, WI

Home | Current Version | Previous Version | Graphics & Text | Print | Product List | Glossary On
Versions: 1 2 3 4 5 6 7 8 9 10 11 12 13 14 15 16 17 18 19 20 21 22 23 24 25 26 27 28 29 30 31 32 33 34 35 36 37 38 39 40 41 42 43 44 45 46 47 48 49 50
000
ASUS43 KGRB 232011
RWRGRB

NORTH-CENTRAL AND NORTHEAST WISCONSIN REGIONAL WEATHER ROUNDUP
NATIONAL WEATHER SERVICE GREEN BAY WI
300 PM CDT FRI JUN 23 2017

WIZ005-009-010>012-018-019-232100-
NORTH CENTRAL WISCONSIN

CITY           SKY/WX    TMP DP  RH WIND       PRES   REMARKS
IRONWOOD       PTSUNNY   66  48  52 NW20      29.70R
MANITOWISH WTR CLOUDY    65  49  54 W14G22    29.70R
ARBOR VITAE    PTSUNNY   69  50  50 W16       29.69F
EAGLE RIVER    PTSUNNY   68  46  44 NW13G24   29.69R
LAND O LAKES   MOSUNNY   66  46  46 NW13G21   29.70R
RHINELANDER    CLOUDY    68  52  56 W10       29.70S
PHILLIPS       CLOUDY    66  51  58 NW6       29.71S
ANTIGO         CLOUDY    68  51  55 W16G24    29.70R
TOMAHAWK       NOT AVBL
MERRILL        MOSUNNY   70  51  50 NW15G24   29.70F
$$

WIZ013-073-232100-
NORTHEAST WISCONSIN

CITY           SKY/WX    TMP DP  RH WIND       PRES   REMARKS
IRON MOUNTAIN  MOSUNNY   72  45  37 NW14G22   29.62S
MARINETTE      MOSUNNY   76  48  37 NW8G20    29.61S
OCONTO         MOSUNNY   77  49  37 W14G24    29.62R
$$

WIZ017-030-035>037-045-232100-
CENTRAL WISCONSIN

CITY           SKY/WX    TMP DP  RH WIND       PRES   REMARKS
MEDFORD        CLOUDY    65  51  59 W14G20    29.73S
WAUSAU         PTSUNNY   70  51  51 W18G25    29.69S
MOSINEE        PTSUNNY   68  52  56 W15G21    29.72S
MARSHFIELD     CLOUDY    67  51  56 W15G23    29.73R
WISC RAPIDS    LGT RAIN  74  53  48 NW16G23   29.73R
STEVENS POINT  PTSUNNY   71  50  47 W12G24    29.71S
WAUPACA        MOSUNNY   78  48  34 W14G24    29.69R
SHAWANO        MOSUNNY   76  49  38 W15G24    29.65S
CLINTONVILLE   PTSUNNY   75  45  33 W17G25    29.66S
WAUTOMA        MOSUNNY   77  52  41 W20G28    29.70R
$$

WIZ038-039-048-051-232100-
FOX VALLEY

CITY           SKY/WX    TMP DP  RH WIND       PRES   REMARKS
NWS GREEN BAY  MOSUNNY   77  53  43 W18G26    29.65R
APPLETON       PTSUNNY   75  46  35 W18G26    29.66S
OSHKOSH        MOSUNNY   77  52  41 W14G24    29.65F
FOND DU LAC    MOSUNNY   78  51  38 W16G28    29.66F
$$

WIZ022-050-052-232100-
EAST CENTRAL WISCONSIN

CITY           SKY/WX    TMP DP  RH WIND       PRES   REMARKS
EPHRAIM        FAIR      76  50  40 W10G18    29.60S
WASHINGTON ISL CLOUDY    74  55  52 SW7       29.59F
STURGEON BAY     N/A     77  51  40 W13G21      N/A
MANITOWOC      MOSUNNY   77  52  41 W18G25    29.65S
SHEBOYGAN      MOSUNNY   78  56  46 W21       29.66S
$$

LMZ563-521-522-541>543-232100-
LAKESHORE

STATION/POSITION TIME  TEMP    WIND        PRES    VSBY  WAVE
                       AIR SEA DIR/SP/G                  HT/PER
                 (UTC) (F)     (DEG/KT/KT) (MB)    (MI)  (FT/S)
SHEBOYGAN LKSHOR 2000   76     280/ 19/ 22 1003.5F
KEWAUNEE LKSHORE 1948   77     290/ 11/ 17 1003.1S
NORTHPORT PIER   1940   78     280/  6/ 13 1002.0S
N MID LAKE BUOY  1950   60 57  190/  8/ 10 1002.8F         1
S GREEN BAY BUOY 2000   73     270/ 16/ 19 1003.0
CHAMBERS ISLAND  1940   76     240/  8/ 15 1002.4S
MENOMINEE LKSHOR 1948          250/ 16/ 22 1001.7F
$$




USA.gov is the U.S. government's official web portal to all federal, state and local government web resources and services.